Location: Lombard
(41.8800°N, 88.0080°W)
Time: 18:14:13
(UTC-06:00)

Vanguard 3 - Pass Details

Date: 13 December 2023
Orbit: 508 x 3239 km, 33.4° (Epoch: 23 February)

Event Time Altitude Azimuth Distance (km) Brightness Sun altitude
Rises 17:32:29 0° 221° (SW) 7,128 13.1 -12.8°
Reaches altitude 10° 17:37:43 10° 215° (SW) 6,165 12.4 -13.7°
Maximum altitude 17:54:55 40° 154° (SSE) 3,778 10.4 -16.8°
Enters shadow 18:05:14 19° 99° (E) 4,309 10.3 -18.6°
